SWA2234 KDEN-KSAN

Flight info

Callsign SWA2234
Flight time 1h 56m
Altitude 38000
Route BAYLR6 TEHRU PLNDL Q86 TTRUE LUCKI1
Aircraft B38M/M-SDE1FGHILORVWXY/HB1

Departure

Time 2026-04-21 14:43
Airport Denver International Airport (KDEN)

Arrival

Time 2026-04-21 16:39
Airport San Diego International Airport (KSAN)
Time Latitude Longitude Altitude Speed Heading
2026-04-21 14:18 39.85797 -104.66911 5384 ft 0 kts
2026-04-21 14:31 39.85788 -104.66911 5383 ft 2 kts
2026-04-21 14:32 39.85775 -104.66911 5380 ft 2 kts
2026-04-21 14:32 39.85763 -104.66911 5382 ft 2 kts
2026-04-21 14:32 39.85750 -104.66911 5382 ft 2 kts
2026-04-21 14:32 39.85738 -104.66913 5382 ft 2 kts 32°
2026-04-21 14:33 39.85730 -104.66925 5384 ft 2 kts 81°
2026-04-21 14:33 39.85730 -104.66933 5384 ft 0 kts 94°
2026-04-21 14:37 39.85730 -104.66931 5384 ft 1 kts 94°
2026-04-21 14:37 39.85728 -104.66887 5381 ft 9 kts 92°
2026-04-21 14:37 39.85690 -104.66814 5386 ft 11 kts 150°
2026-04-21 14:37 39.85660 -104.66739 5387 ft 10 kts 94°
2026-04-21 14:38 39.85659 -104.66639 5389 ft 13 kts 89°
2026-04-21 14:38 39.85675 -104.66521 5392 ft 13 kts 77°
2026-04-21 14:38 39.85679 -104.66410 5390 ft 13 kts 90°
2026-04-21 14:38 39.85680 -104.66289 5398 ft 13 kts 82°
2026-04-21 14:39 39.85746 -104.66235 5399 ft 13 kts
2026-04-21 14:39 39.85854 -104.66233 5392 ft 20 kts
2026-04-21 14:39 39.86013 -104.66231 5392 ft 25 kts
2026-04-21 14:39 39.86195 -104.66230 5388 ft 27 kts 360°
2026-04-21 14:40 39.86395 -104.66227 5381 ft 30 kts
2026-04-21 14:40 39.86604 -104.66225 5378 ft 31 kts
2026-04-21 14:40 39.86825 -104.66223 5373 ft 33 kts 359°
2026-04-21 14:40 39.87061 -104.66218 5367 ft 35 kts
2026-04-21 14:41 39.87307 -104.66217 5364 ft 36 kts
2026-04-21 14:41 39.87529 -104.66212 5365 ft 22 kts
2026-04-21 14:41 39.87667 -104.66211 5363 ft 11 kts
2026-04-21 14:41 39.87739 -104.66190 5362 ft 9 kts 44°
2026-04-21 14:42 39.87755 -104.66100 5359 ft 6 kts 92°
2026-04-21 14:42 39.87755 -104.66097 5359 ft 0 kts 91°
2026-04-21 14:42 39.87755 -104.66095 5359 ft 2 kts 91°
2026-04-21 14:42 39.87754 -104.65954 5357 ft 44 kts 91°
2026-04-21 14:43 39.87749 -104.65246 5355 ft 110 kts 90°
2026-04-21 14:43 39.87741 -104.63995 5331 ft 165 kts 90°
2026-04-21 14:43 39.87740 -104.62348 5512 ft 192 kts 90°
2026-04-21 14:43 39.87775 -104.60573 6148 ft 200 kts 88°
2026-04-21 14:44 39.87850 -104.58734 6751 ft 207 kts 84°
2026-04-21 14:44 39.87886 -104.56862 7359 ft 212 kts 90°
2026-04-21 14:44 39.87736 -104.54866 7673 ft 236 kts 111°
2026-04-21 14:44 39.86682 -104.53127 7945 ft 258 kts 150°
2026-04-21 14:45 39.84938 -104.52507 8438 ft 270 kts 184°
2026-04-21 14:45 39.83135 -104.53276 8862 ft 282 kts 218°
2026-04-21 14:45 39.81926 -104.55269 9564 ft 282 kts 251°
2026-04-21 14:45 39.81667 -104.57794 10314 ft 288 kts 272°
2026-04-21 14:46 39.81611 -104.60476 10753 ft 305 kts 265°
2026-04-21 14:46 39.81372 -104.63282 11272 ft 317 kts 262°
2026-04-21 14:46 39.81025 -104.66131 12087 ft 319 kts 260°
2026-04-21 14:46 39.80616 -104.68992 12882 ft 324 kts 259°
2026-04-21 14:47 39.80161 -104.71880 13715 ft 328 kts 258°
2026-04-21 14:47 39.79680 -104.74801 14509 ft 332 kts 258°
2026-04-21 14:47 39.79183 -104.77749 15317 ft 336 kts 257°
2026-04-21 14:47 39.78676 -104.80698 16076 ft 340 kts 257°
2026-04-21 14:48 39.78154 -104.83716 16834 ft 344 kts 257°
2026-04-21 14:48 39.77616 -104.86811 17600 ft 348 kts 257°
2026-04-21 14:48 39.77084 -104.89864 18327 ft 352 kts 257°
2026-04-21 14:48 39.76540 -104.92990 18953 ft 357 kts 257°
2026-04-21 14:49 39.75989 -104.96151 19569 ft 360 kts 257°
2026-04-21 14:49 39.75432 -104.99340 20186 ft 364 kts 257°
2026-04-21 14:49 39.74839 -105.02559 20800 ft 368 kts 252°
2026-04-21 14:49 39.73870 -105.05648 21376 ft 372 kts 247°
2026-04-21 14:50 39.73197 -105.07703 21744 ft 375 kts 247°
2026-04-21 14:50 39.71821 -105.11907 22499 ft 380 kts 247°
2026-04-21 14:50 39.71129 -105.14022 22867 ft 383 kts 247°
2026-04-21 14:50 39.69734 -105.18276 23596 ft 389 kts 247°
2026-04-21 14:51 39.68670 -105.21520 24064 ft 392 kts 247°
2026-04-21 14:51 39.67596 -105.24787 24553 ft 394 kts 247°
2026-04-21 14:51 39.66866 -105.27008 24886 ft 396 kts 247°
2026-04-21 14:51 39.65781 -105.30304 25365 ft 398 kts 247°
2026-04-21 14:52 39.64688 -105.33618 25833 ft 401 kts 248°
2026-04-21 14:52 39.63601 -105.36912 26287 ft 403 kts 248°
2026-04-21 14:52 39.62497 -105.40263 26766 ft 405 kts 248°
2026-04-21 14:52 39.61383 -105.43636 27230 ft 408 kts 248°
2026-04-21 14:53 39.60262 -105.47028 27690 ft 410 kts 248°
2026-04-21 14:53 39.59131 -105.50433 28140 ft 413 kts 248°
2026-04-21 14:53 39.57990 -105.53863 28579 ft 415 kts 248°
2026-04-21 14:53 39.56840 -105.57315 28995 ft 418 kts 248°
2026-04-21 14:54 39.55687 -105.60781 29413 ft 421 kts 248°
2026-04-21 14:54 39.54689 -105.64356 29824 ft 423 kts 251°
2026-04-21 14:54 39.53712 -105.67959 30222 ft 425 kts 251°
2026-04-21 14:54 39.52714 -105.71581 30554 ft 428 kts 251°
2026-04-21 14:55 39.51704 -105.75214 30901 ft 430 kts 251°
2026-04-21 14:55 39.50685 -105.78865 31239 ft 432 kts 251°
2026-04-21 14:55 39.49661 -105.82528 31569 ft 435 kts 251°
2026-04-21 14:55 39.48626 -105.86225 31894 ft 437 kts 251°
2026-04-21 14:56 39.47588 -105.89928 32217 ft 439 kts 250°
2026-04-21 14:56 39.46556 -105.93605 32551 ft 441 kts 250°
2026-04-21 14:56 39.45503 -105.97347 32865 ft 444 kts 250°
2026-04-21 14:56 39.44442 -106.01116 33209 ft 446 kts 250°
2026-04-21 14:57 39.43376 -106.04893 33529 ft 449 kts 250°
2026-04-21 14:57 39.42303 -106.08695 33876 ft 451 kts 250°
2026-04-21 14:57 39.41226 -106.12503 34280 ft 451 kts 250°
2026-04-21 14:57 39.40149 -106.16310 34665 ft 450 kts 250°
2026-04-21 14:58 39.39077 -106.20108 35065 ft 449 kts 250°
2026-04-21 14:58 39.38007 -106.23894 35474 ft 448 kts 250°
2026-04-21 14:58 39.36942 -106.27662 35884 ft 446 kts 250°
2026-04-21 14:58 39.35876 -106.31425 36265 ft 444 kts 250°
2026-04-21 14:59 39.34815 -106.35166 36609 ft 443 kts 250°
2026-04-21 14:59 39.33755 -106.38897 36937 ft 442 kts 250°
2026-04-21 14:59 39.32695 -106.42624 37256 ft 441 kts 250°
2026-04-21 14:59 39.31638 -106.46336 37559 ft 440 kts 250°
2026-04-21 15:00 39.30580 -106.50043 37855 ft 439 kts 250°
2026-04-21 15:00 39.29538 -106.53689 38136 ft 438 kts 250°
2026-04-21 15:00 39.28484 -106.57378 38307 ft 438 kts 250°
2026-04-21 15:01 39.26375 -106.64732 38231 ft 434 kts 250°
2026-04-21 15:01 39.24108 -106.71962 38232 ft 435 kts 238°
2026-04-21 15:02 39.20472 -106.78202 38252 ft 436 kts 233°
2026-04-21 15:02 39.16750 -106.84385 38273 ft 437 kts 232°
2026-04-21 15:03 39.12993 -106.90534 38268 ft 437 kts 232°
2026-04-21 15:03 39.09229 -106.96673 38233 ft 436 kts 232°
2026-04-21 15:04 39.05464 -107.02801 38194 ft 436 kts 232°
2026-04-21 15:04 39.01697 -107.08921 38155 ft 436 kts 232°
2026-04-21 15:05 38.97957 -107.14986 38109 ft 435 kts 232°
2026-04-21 15:05 38.92312 -107.24116 38105 ft 435 kts 232°
2026-04-21 15:06 38.88547 -107.30192 38089 ft 434 kts 232°
2026-04-21 15:06 38.84787 -107.36249 38092 ft 434 kts 232°
2026-04-21 15:07 38.81020 -107.42305 38085 ft 434 kts 232°
2026-04-21 15:07 38.77254 -107.48347 38080 ft 434 kts 232°
2026-04-21 15:08 38.73485 -107.54383 38068 ft 433 kts 232°
2026-04-21 15:08 38.69719 -107.60404 38102 ft 433 kts 231°
2026-04-21 15:09 38.65953 -107.66413 38127 ft 432 kts 231°
2026-04-21 15:09 38.62192 -107.72403 38158 ft 432 kts 231°
2026-04-21 15:10 38.58425 -107.78392 38200 ft 432 kts 231°
2026-04-21 15:10 38.54652 -107.84378 38205 ft 432 kts 231°
2026-04-21 15:11 38.50880 -107.90352 38207 ft 432 kts 231°
2026-04-21 15:11 38.47126 -107.96286 38204 ft 432 kts 231°
2026-04-21 15:12 38.43343 -108.02255 38183 ft 433 kts 231°
2026-04-21 15:12 38.39557 -108.08219 38151 ft 433 kts 231°
2026-04-21 15:13 38.35765 -108.14181 38112 ft 433 kts 231°
2026-04-21 15:13 38.31967 -108.20140 38082 ft 433 kts 230°
2026-04-21 15:14 38.28162 -108.26101 38050 ft 433 kts 230°
2026-04-21 15:14 38.24357 -108.32049 38049 ft 433 kts 230°
2026-04-21 15:15 38.20550 -108.37990 38052 ft 433 kts 230°
2026-04-21 15:15 38.16743 -108.43920 38050 ft 433 kts 230°
2026-04-21 15:16 38.12931 -108.49848 38055 ft 433 kts 230°
2026-04-21 15:16 38.09134 -108.55741 38058 ft 433 kts 230°
2026-04-21 15:17 38.05318 -108.61652 38056 ft 433 kts 230°
2026-04-21 15:17 38.01502 -108.67554 38056 ft 432 kts 230°
2026-04-21 15:18 37.97681 -108.73452 38056 ft 432 kts 230°
2026-04-21 15:18 37.93863 -108.79336 38054 ft 432 kts 230°
2026-04-21 15:19 37.90046 -108.85207 38059 ft 431 kts 230°
2026-04-21 15:19 37.86228 -108.91069 38054 ft 431 kts 230°
2026-04-21 15:20 37.82408 -108.96922 38052 ft 431 kts 230°
2026-04-21 15:20 37.78589 -109.02764 38052 ft 431 kts 230°
2026-04-21 15:21 37.74788 -109.08570 38054 ft 430 kts 230°
2026-04-21 15:21 37.70969 -109.14390 38083 ft 430 kts 230°
2026-04-21 15:22 37.67151 -109.20201 38120 ft 430 kts 230°
2026-04-21 15:22 37.63337 -109.25995 38152 ft 429 kts 229°
2026-04-21 15:23 37.59516 -109.31788 38182 ft 429 kts 229°
2026-04-21 15:23 37.55696 -109.37570 38207 ft 429 kts 229°
2026-04-21 15:24 37.51876 -109.43342 38206 ft 428 kts 229°
2026-04-21 15:24 37.48060 -109.49097 38198 ft 428 kts 229°
2026-04-21 15:25 37.44239 -109.54850 38168 ft 428 kts 229°
2026-04-21 15:25 37.40420 -109.60589 38136 ft 428 kts 229°
2026-04-21 15:26 37.36624 -109.66285 38104 ft 428 kts 229°
2026-04-21 15:26 37.32801 -109.72012 38062 ft 428 kts 229°
2026-04-21 15:27 37.28969 -109.77741 38034 ft 428 kts 229°
2026-04-21 15:27 37.25131 -109.83470 38027 ft 428 kts 229°
2026-04-21 15:28 37.21287 -109.89197 38028 ft 428 kts 229°
2026-04-21 15:28 37.17471 -109.94874 38026 ft 428 kts 229°
2026-04-21 15:29 37.13625 -110.00584 38019 ft 429 kts 229°
2026-04-21 15:29 37.09774 -110.06293 38016 ft 429 kts 229°
2026-04-21 15:30 37.05912 -110.12007 38002 ft 429 kts 229°
2026-04-21 15:30 37.02047 -110.17716 38000 ft 430 kts 229°
2026-04-21 15:31 36.98178 -110.23421 38002 ft 430 kts 228°
2026-04-21 15:31 36.94307 -110.29121 37995 ft 430 kts 228°
2026-04-21 15:32 36.90433 -110.34814 37987 ft 429 kts 228°
2026-04-21 15:32 36.86559 -110.40497 37992 ft 429 kts 228°
2026-04-21 15:33 36.82718 -110.46122 37987 ft 428 kts 228°
2026-04-21 15:33 36.78856 -110.51769 37989 ft 427 kts 228°
2026-04-21 15:34 36.74997 -110.57400 37994 ft 426 kts 228°
2026-04-21 15:34 36.71148 -110.63010 37989 ft 425 kts 227°
2026-04-21 15:35 36.67306 -110.68599 37989 ft 424 kts 227°
2026-04-21 15:35 36.63464 -110.74178 37990 ft 424 kts 227°
2026-04-21 15:36 36.59628 -110.79740 37987 ft 423 kts 227°
2026-04-21 15:36 36.55794 -110.85290 37992 ft 422 kts 227°
2026-04-21 15:37 36.51960 -110.90830 37987 ft 422 kts 227°
2026-04-21 15:37 36.48136 -110.96346 37989 ft 421 kts 227°
2026-04-21 15:38 36.44333 -111.01823 37995 ft 421 kts 227°
2026-04-21 15:38 36.40508 -111.07322 37993 ft 420 kts 227°
2026-04-21 15:39 36.36685 -111.12811 37995 ft 420 kts 227°
2026-04-21 15:39 36.32858 -111.18295 37994 ft 420 kts 227°
2026-04-21 15:40 36.29675 -111.22850 37994 ft 420 kts 227°
2026-04-21 15:40 36.25852 -111.28314 37999 ft 420 kts 227°
2026-04-21 15:41 36.22029 -111.33768 38001 ft 419 kts 227°
2026-04-21 15:41 36.18205 -111.39214 38002 ft 419 kts 227°
2026-04-21 15:42 36.14384 -111.44649 38004 ft 418 kts 227°
2026-04-21 15:42 36.10561 -111.50079 38004 ft 418 kts 227°
2026-04-21 15:43 36.06734 -111.55506 38007 ft 418 kts 227°
2026-04-21 15:43 36.02901 -111.60934 38011 ft 419 kts 227°
2026-04-21 15:44 35.99070 -111.66349 38018 ft 419 kts 227°
2026-04-21 15:44 35.95256 -111.71732 38029 ft 419 kts 227°
2026-04-21 15:45 35.91413 -111.77146 38064 ft 420 kts 227°
2026-04-21 15:45 35.87564 -111.82563 38107 ft 420 kts 227°
2026-04-21 15:46 35.83782 -111.88063 38107 ft 422 kts 236°
2026-04-21 15:46 35.80876 -111.94376 38133 ft 424 kts 238°
2026-04-21 15:47 35.77982 -112.00726 38152 ft 425 kts 238°
2026-04-21 15:47 35.75095 -112.07096 38152 ft 426 kts 239°
2026-04-21 15:48 35.72166 -112.13431 38137 ft 426 kts 238°
2026-04-21 15:48 35.69208 -112.19743 38114 ft 426 kts 238°
2026-04-21 15:49 35.66250 -112.26049 38088 ft 425 kts 238°
2026-04-21 15:49 35.63312 -112.32303 38053 ft 424 kts 238°
2026-04-21 15:50 35.60363 -112.38585 38052 ft 424 kts 239°
2026-04-21 15:50 35.57424 -112.44902 38050 ft 423 kts 239°
2026-04-21 15:51 35.54502 -112.51167 38035 ft 422 kts 239°
2026-04-21 15:51 35.51582 -112.57414 38023 ft 421 kts 239°
2026-04-21 15:52 35.48681 -112.63609 38018 ft 421 kts 239°
2026-04-21 15:52 35.45761 -112.69835 38016 ft 421 kts 239°
2026-04-21 15:53 35.42829 -112.76073 38012 ft 421 kts 239°
2026-04-21 15:53 35.39904 -112.82287 38006 ft 421 kts 239°
2026-04-21 15:54 35.36971 -112.88503 38001 ft 421 kts 239°
2026-04-21 15:54 35.34039 -112.94709 37996 ft 420 kts 239°
2026-04-21 15:55 35.31121 -113.00872 37988 ft 420 kts 239°
2026-04-21 15:55 35.28184 -113.07067 37981 ft 420 kts 239°
2026-04-21 15:56 35.25251 -113.13241 37978 ft 420 kts 239°
2026-04-21 15:56 35.22311 -113.19419 37969 ft 419 kts 239°
2026-04-21 15:57 35.19378 -113.25572 37954 ft 418 kts 239°
2026-04-21 15:57 35.16444 -113.31717 37954 ft 418 kts 239°
2026-04-21 15:58 35.13510 -113.37849 37946 ft 418 kts 239°
2026-04-21 15:58 35.10595 -113.43933 37935 ft 417 kts 239°
2026-04-21 15:59 35.07662 -113.50042 37935 ft 417 kts 239°
2026-04-21 15:59 35.04732 -113.56135 37927 ft 416 kts 239°
2026-04-21 16:00 35.01799 -113.62223 37931 ft 416 kts 239°
2026-04-21 16:00 34.98867 -113.68298 37929 ft 415 kts 239°
2026-04-21 16:01 34.95936 -113.74362 37934 ft 415 kts 239°
2026-04-21 16:01 34.93007 -113.80409 37927 ft 414 kts 239°
2026-04-21 16:02 34.90073 -113.86457 37909 ft 413 kts 239°
2026-04-21 16:02 34.87141 -113.92483 37908 ft 413 kts 238°
2026-04-21 16:03 34.84088 -113.98401 37912 ft 412 kts 238°
2026-04-21 16:03 34.81046 -114.04310 37910 ft 412 kts 238°
2026-04-21 16:04 34.78005 -114.10215 37920 ft 412 kts 238°
2026-04-21 16:04 34.74964 -114.16108 37937 ft 411 kts 238°
2026-04-21 16:05 34.71924 -114.21988 37908 ft 417 kts 240°
2026-04-21 16:05 34.68817 -114.27995 38017 ft 423 kts 238°
2026-04-21 16:06 34.65725 -114.33954 37994 ft 411 kts 238°
2026-04-21 16:06 34.62513 -114.39659 37971 ft 409 kts 229°
2026-04-21 16:07 34.58751 -114.44871 37972 ft 411 kts 230°
2026-04-21 16:07 34.54985 -114.50088 37980 ft 411 kts 230°
2026-04-21 16:08 34.49321 -114.57907 37950 ft 411 kts 230°
2026-04-21 16:09 34.45543 -114.63112 37943 ft 411 kts 230°
2026-04-21 16:09 34.41765 -114.68310 37541 ft 410 kts 230°
2026-04-21 16:09 34.39878 -114.70903 37227 ft 410 kts 230°
2026-04-21 16:10 34.37989 -114.73497 36904 ft 411 kts 230°
2026-04-21 16:10 34.36095 -114.76097 36585 ft 411 kts 230°
2026-04-21 16:10 34.34197 -114.78694 36282 ft 412 kts 230°
2026-04-21 16:10 34.32296 -114.81296 35983 ft 413 kts 230°
2026-04-21 16:11 34.30391 -114.83899 35675 ft 414 kts 230°
2026-04-21 16:11 34.28483 -114.86505 35377 ft 415 kts 230°
2026-04-21 16:11 34.26565 -114.89125 35085 ft 416 kts 230°
2026-04-21 16:11 34.24645 -114.91743 34789 ft 417 kts 230°
2026-04-21 16:12 34.23369 -114.93484 34602 ft 418 kts 230°
2026-04-21 16:12 34.20810 -114.96969 34221 ft 419 kts 229°
2026-04-21 16:12 34.18876 -114.99602 33934 ft 420 kts 229°
2026-04-21 16:12 34.16933 -115.02244 33605 ft 421 kts 229°
2026-04-21 16:13 34.14988 -115.04888 33286 ft 422 kts 229°
2026-04-21 16:13 34.13037 -115.07538 32962 ft 423 kts 229°
2026-04-21 16:13 34.11078 -115.10196 32647 ft 424 kts 229°
2026-04-21 16:13 34.09113 -115.12860 32335 ft 425 kts 229°
2026-04-21 16:14 34.07146 -115.15525 32027 ft 426 kts 229°
2026-04-21 16:14 34.05169 -115.18202 31720 ft 427 kts 229°
2026-04-21 16:14 34.03189 -115.20881 31424 ft 428 kts 229°
2026-04-21 16:14 34.01202 -115.23568 31122 ft 429 kts 229°
2026-04-21 16:15 33.99217 -115.26253 30827 ft 430 kts 229°
2026-04-21 16:15 33.97227 -115.28953 30531 ft 431 kts 229°
2026-04-21 16:15 33.95234 -115.31656 30238 ft 432 kts 229°
2026-04-21 16:15 33.93234 -115.34365 29940 ft 433 kts 229°
2026-04-21 16:16 33.91229 -115.37079 29614 ft 434 kts 229°
2026-04-21 16:16 33.89222 -115.39794 29268 ft 435 kts 229°
2026-04-21 16:16 33.87206 -115.42519 28936 ft 435 kts 229°
2026-04-21 16:16 33.85193 -115.45237 28610 ft 436 kts 229°
2026-04-21 16:17 33.83174 -115.47962 28280 ft 437 kts 229°
2026-04-21 16:17 33.81150 -115.50690 27965 ft 437 kts 229°
2026-04-21 16:17 33.79123 -115.53423 27650 ft 438 kts 229°
2026-04-21 16:17 33.77095 -115.56153 27336 ft 438 kts 229°
2026-04-21 16:18 33.75089 -115.58852 27029 ft 439 kts 229°
2026-04-21 16:18 33.73052 -115.61590 26726 ft 440 kts 229°
2026-04-21 16:18 33.71005 -115.64336 26417 ft 441 kts 228°
2026-04-21 16:18 33.68945 -115.67062 26115 ft 442 kts 228°
2026-04-21 16:19 33.66877 -115.69797 25822 ft 443 kts 228°
2026-04-21 16:19 33.64810 -115.72533 25526 ft 442 kts 228°
2026-04-21 16:19 33.62746 -115.75261 25238 ft 441 kts 228°
2026-04-21 16:19 33.60914 -115.78195 24944 ft 439 kts 237°
2026-04-21 16:20 33.59215 -115.81231 24664 ft 438 kts 235°
2026-04-21 16:20 33.57485 -115.84231 24388 ft 436 kts 235°
2026-04-21 16:20 33.55749 -115.87208 24125 ft 435 kts 234°
2026-04-21 16:20 33.54013 -115.90166 23996 ft 434 kts 234°
2026-04-21 16:21 33.52277 -115.93115 23981 ft 432 kts 234°
2026-04-21 16:21 33.50564 -115.96065 23820 ft 430 kts 235°
2026-04-21 16:21 33.48866 -115.99001 23493 ft 427 kts 235°
2026-04-21 16:21 33.47176 -116.01919 23115 ft 425 kts 235°
2026-04-21 16:22 33.46062 -116.03839 22857 ft 424 kts 235°
2026-04-21 16:22 33.43820 -116.07702 22371 ft 421 kts 234°
2026-04-21 16:22 33.42152 -116.10573 22004 ft 418 kts 234°
2026-04-21 16:22 33.40496 -116.13420 21645 ft 416 kts 234°
2026-04-21 16:23 33.38847 -116.16254 21293 ft 414 kts 234°
2026-04-21 16:23 33.37208 -116.19071 20954 ft 411 kts 234°
2026-04-21 16:23 33.35577 -116.21867 20613 ft 408 kts 234°
2026-04-21 16:23 33.33825 -116.24519 20251 ft 405 kts 223°
2026-04-21 16:24 33.31507 -116.26389 19924 ft 404 kts 206°
2026-04-21 16:24 33.28996 -116.27799 19605 ft 403 kts 207°
2026-04-21 16:24 33.26486 -116.29265 19203 ft 399 kts 207°
2026-04-21 16:24 33.24020 -116.30709 18779 ft 391 kts 207°
2026-04-21 16:25 33.21595 -116.32128 18363 ft 385 kts 207°
2026-04-21 16:25 33.19207 -116.33526 17892 ft 379 kts 207°
2026-04-21 16:25 33.17609 -116.34462 17513 ft 377 kts 207°
2026-04-21 16:25 33.14536 -116.36258 16661 ft 365 kts 207°
2026-04-21 16:26 33.13010 -116.37150 16177 ft 358 kts 206°
2026-04-21 16:26 33.10803 -116.38440 15508 ft 349 kts 206°
2026-04-21 16:26 33.08645 -116.39700 14845 ft 342 kts 206°
2026-04-21 16:26 33.06527 -116.40935 14187 ft 336 kts 206°
2026-04-21 16:27 33.04444 -116.42150 13497 ft 331 kts 206°
2026-04-21 16:27 33.02387 -116.43349 12791 ft 326 kts 206°
2026-04-21 16:27 33.00404 -116.44606 12266 ft 316 kts 215°
2026-04-21 16:27 32.98732 -116.46254 12184 ft 311 kts 219°
2026-04-21 16:28 32.97089 -116.47919 11902 ft 311 kts 219°
2026-04-21 16:28 32.95457 -116.49568 11445 ft 312 kts 219°
2026-04-21 16:28 32.93778 -116.51263 11001 ft 313 kts 219°
2026-04-21 16:28 32.92156 -116.52898 10538 ft 304 kts 219°
2026-04-21 16:29 32.90565 -116.54502 10120 ft 295 kts 219°
2026-04-21 16:29 32.89019 -116.56061 9646 ft 288 kts 219°
2026-04-21 16:29 32.87509 -116.57583 9174 ft 281 kts 220°
2026-04-21 16:29 32.86028 -116.59073 8760 ft 275 kts 220°
2026-04-21 16:30 32.84574 -116.60536 8699 ft 274 kts 220°
2026-04-21 16:30 32.83118 -116.62003 8648 ft 274 kts 220°
2026-04-21 16:30 32.81673 -116.63459 8403 ft 272 kts 220°
2026-04-21 16:30 32.80226 -116.64916 8119 ft 272 kts 220°
2026-04-21 16:31 32.78786 -116.66364 7896 ft 272 kts 220°
2026-04-21 16:31 32.77412 -116.67910 7533 ft 274 kts 233°
2026-04-21 16:31 32.76435 -116.69868 7188 ft 276 kts 240°
2026-04-21 16:31 32.75490 -116.71838 6856 ft 273 kts 240°
2026-04-21 16:32 32.74560 -116.73785 6564 ft 268 kts 240°
2026-04-21 16:32 32.73644 -116.75699 6224 ft 264 kts 240°
2026-04-21 16:32 32.72750 -116.77580 5894 ft 260 kts 240°
2026-04-21 16:32 32.71869 -116.79436 5625 ft 258 kts 240°
2026-04-21 16:33 32.70988 -116.81303 5345 ft 259 kts 241°
2026-04-21 16:33 32.70280 -116.83231 5114 ft 256 kts 250°
2026-04-21 16:33 32.69670 -116.85201 5078 ft 246 kts 250°
2026-04-21 16:33 32.69089 -116.87038 5051 ft 235 kts 249°
2026-04-21 16:34 32.68551 -116.88824 5030 ft 224 kts 251°
2026-04-21 16:34 32.68050 -116.90556 5007 ft 219 kts 251°
2026-04-21 16:34 32.67547 -116.92279 4680 ft 222 kts 252°
2026-04-21 16:34 32.67426 -116.94077 4411 ft 220 kts 280°
2026-04-21 16:35 32.67798 -116.95835 4111 ft 221 kts 284°
2026-04-21 16:35 32.68199 -116.97591 3869 ft 218 kts 284°
2026-04-21 16:35 32.68596 -116.99291 3612 ft 208 kts 285°
2026-04-21 16:35 32.68976 -117.00903 3312 ft 199 kts 285°
2026-04-21 16:36 32.69349 -117.02425 3060 ft 181 kts 286°
2026-04-21 16:36 32.69682 -117.03732 2946 ft 154 kts 287°
2026-04-21 16:36 32.69976 -117.04908 2694 ft 145 kts 286°
2026-04-21 16:36 32.70241 -117.06050 2501 ft 143 kts 285°
2026-04-21 16:37 32.70506 -117.07186 2266 ft 142 kts 285°
2026-04-21 16:37 32.70770 -117.08314 1995 ft 142 kts 285°
2026-04-21 16:37 32.71031 -117.09442 1765 ft 144 kts 285°
2026-04-21 16:37 32.71314 -117.10581 1563 ft 144 kts 287°
2026-04-21 16:38 32.71605 -117.11719 1348 ft 144 kts 286°
2026-04-21 16:38 32.71896 -117.12855 1133 ft 144 kts 286°
2026-04-21 16:38 32.72170 -117.14008 862 ft 146 kts 285°
2026-04-21 16:38 32.72440 -117.15170 643 ft 146 kts 284°
2026-04-21 16:39 32.72708 -117.16318 401 ft 145 kts 285°
2026-04-21 16:39 32.72991 -117.17465 145 ft 144 kts 284°
2026-04-21 16:39 32.73263 -117.18577 29 ft 131 kts 285°
2026-04-21 16:39 32.73446 -117.19332 27 ft 49 kts 286°
2026-04-21 16:40 32.73528 -117.19677 32 ft 28 kts 284°
2026-04-21 16:40 32.73512 -117.19822 31 ft 9 kts 249°
2026-04-21 16:40 32.73491 -117.19891 30 ft 10 kts 251°
2026-04-21 16:40 32.73446 -117.19955 29 ft 12 kts 202°
2026-04-21 16:41 32.73392 -117.19970 30 ft 6 kts 189°
2026-04-21 16:41 32.73343 -117.19982 29 ft 8 kts 192°
2026-04-21 16:41 32.73310 -117.19997 29 ft 7 kts 217°
2026-04-21 16:41 32.73302 -117.20056 28 ft 7 kts 276°
2026-04-21 16:42 32.73303 -117.20065 28 ft 0 kts 276°